Timestamp,Temp,Chill,HIndex,Humid,Dewpt,Wind,HiWind,WindDir,Rain,RainRate,Barom,Solar,ET,UV,InsideTemp,InsideHumid
2015-07-11 00:00:00,67.7,67.7,67.7,62,54.2027460738152,4,11,225,0,0,29.642,0,0.002,0,78.8,42
2015-07-11 00:05:00,67.2,67.2,67.2,64,54.6016010941714,4,9,202.5,0,0,29.647,0,0,0,78.8,42
2015-07-11 00:10:00,66.7,66.7,66.7,65,54.5536970050045,3,8,180,0,0,29.649,0,0,0,78.6,43
2015-07-11 00:15:00,66.4,66.4,66.4,66,54.6882769474566,2,6,180,0,0,29.65,0,0,0,78.6,43
2015-07-11 00:20:00,66.1,66.1,66.1,67,54.8162561297843,1,7,180,0,0,29.648,0,0,0,78.6,43
2015-07-11 00:25:00,65.9,65.9,65.9,67,54.6259051140086,2,7,180,0,0,29.649,0,0,0,78.6,43
2015-07-11 00:30:00,65.7,65.7,65.7,67,54.4355500722785,2,7,180,0,0,29.649,0,0,0,78.4,43
2015-07-11 00:35:00,65.6,65.6,65.6,67,54.3403710416406,1,5,180,0,0,29.646,0,0,0,78.4,43
2015-07-11 00:40:00,65.6,65.6,65.6,67,54.3403710416406,2,7,180,0,0,29.645,0,0,0,78.4,43
2015-07-11 00:45:00,65.7,65.7,65.7,67,54.4355500722785,2,7,180,0,0,29.641,0,0,0,78.4,43
2015-07-11 00:50:00,65.8,65.8,65.8,67,54.5307280963958,2,8,202.5,0,0,29.643,0,0,0,78.4,43
2015-07-11 00:55:00,65.8,65.8,65.8,66,54.1182760114962,3,8,202.5,0,0,29.642,0,0,0,78.4,43
2015-07-11 01:00:00,65.8,65.8,65.8,66,54.1182760114962,5,9,225,0,0,29.641,0,0.002,0,78.2,43
2015-07-11 01:05:00,65.9,65.9,65.9,66,54.2132787709705,3,7,202.5,0,0,29.641,0,0,0,78.2,43
2015-07-11 01:10:00,65.8,65.8,65.8,66,54.1182760114962,4,10,202.5,0,0,29.644,0,0,0,78,43
2015-07-11 01:15:00,65.8,65.8,65.8,66,54.1182760114962,4,9,202.5,0,0,29.646,0,0,0,78,43
2015-07-11 01:20:00,65.7,65.7,65.7,66,54.0232722105896,4,8,202.5,0,0,29.645,0,0,0,78,43
2015-07-11 01:25:00,65.7,65.7,65.7,66,54.0232722105896,2,7,202.5,0,0,29.644,0,0,0,77.9,43
2015-07-11 01:30:00,65.7,65.7,65.7,66,54.0232722105896,3,9,202.5,0,0,29.641,0,0,0,77.9,43
2015-07-11 01:35:00,65.7,65.7,65.7,66,54.0232722105896,4,10,202.5,0,0,29.642,0,0,0,77.9,43
2015-07-11 01:40:00,65.6,65.6,65.6,66,53.9282673682336,3,8,225,0,0,29.638,0,0,0,77.9,43
2015-07-11 01:45:00,65.6,65.6,65.6,66,53.9282673682336,3,8,202.5,0,0,29.639,0,0,0,77.9,43
2015-07-11 01:50:00,65.5,65.5,65.5,66,53.8332614844111,3,8,202.5,0,0,29.64,0,0,0,77.7,43
2015-07-11 01:55:00,65.4,65.4,65.4,67,54.1500099607395,5,12,202.5,0,0,29.639,0,0,0,77.7,44
2015-07-11 02:00:00,65.4,65.4,65.4,67,54.1500099607395,4,8,202.5,0,0,29.639,0,0.002,0,77.5,44
2015-07-11 02:05:00,65.3,65.3,65.3,67,54.0548279104442,4,10,202.5,0,0,29.636,0,0,0,77.3,44
2015-07-11 02:10:00,65.2,65.2,65.2,67,53.9596448535646,5,10,225,0,0,29.64,0,0,0,77.2,44
2015-07-11 02:15:00,65.1,65.1,65.1,67,53.8644607900846,1,5,225,0,0,29.636,0,0,0,77,44
2015-07-11 02:20:00,65,65,65,68,54.1749813175889,4,11,202.5,0,0,29.638,0,0,0,77,44
2015-07-11 02:25:00,64.9,64.9,64.9,68,54.0796234066239,4,10,202.5,0,0,29.637,0,0,0,76.8,45
2015-07-11 02:30:00,64.8,64.8,64.8,68,53.9842645236241,3,10,202.5,0,0,29.634,0,0,0,76.6,45
2015-07-11 02:35:00,64.8,64.8,64.8,68,53.9842645236241,3,10,225,0,0,29.633,0,0,0,76.6,45
2015-07-11 02:40:00,64.7,64.7,64.7,68,53.8889046685748,5,13,202.5,0,0,29.631,0,0,0,76.6,45
2015-07-11 02:45:00,64.6,64.6,64.6,68,53.793543841461,4,9,202.5,0,0,29.637,0,0,0,76.4,45
2015-07-11 02:50:00,64.5,64.5,64.5,68,53.698182042268,4,9,202.5,0,0,29.636,0,0,0,76.3,45
2015-07-11 02:55:00,64.4,64.4,64.4,69,54.0023006024983,6,15,225,0,0,29.636,0,0,0,76.1,46
2015-07-11 03:00:00,64.3,64.3,64.3,69,53.9067672837123,5,13,225,0,0,29.631,0,0.002,0,75.9,46
2015-07-11 03:05:00,64.2,64.2,64.2,69,53.8112330271055,4,10,225,0,0,29.628,0,0,0,75.9,46
2015-07-11 03:10:00,64.1,64.1,64.1,69,53.7156978326639,5,11,225,0,0,29.628,0,0,0,75.9,46
2015-07-11 03:15:00,64,64,64,69,53.6201617003738,3,11,225,0,0,29.628,0,0,0,75.9,46
2015-07-11 03:20:00,63.9,63.9,63.9,70,53.9182157491389,3,7,225,0,0,29.625,0,0,0,75.9,46
2015-07-11 03:25:00,63.8,63.8,63.8,70,53.822510332737,2,7,202.5,0,0,29.627,0,0,0,75.7,46
2015-07-11 03:30:00,63.7,63.7,63.7,70,53.7268040124434,2,8,225,0,0,29.633,0,0,0,75.7,46
2015-07-11 03:35:00,63.5,63.5,63.5,70,53.5353886601296,2,7,292.5,0,0,29.632,0,0,0,75.7,46
2015-07-11 03:40:00,63.4,63.4,63.4,70,53.4396796280839,2,9,225,0,0,29.632,0,0,0,75.6,46
2015-07-11 03:45:00,63.3,63.3,63.3,71,53.7316609187587,1,6,202.5,0,0,29.634,0,0,0,75.6,46
2015-07-11 03:50:00,63.2,63.2,63.2,71,53.635784816225,2,7,202.5,0,0,29.632,0,0,0,75.6,47
2015-07-11 03:55:00,63.1,63.1,63.1,71,53.5399078434238,3,11,202.5,0,0,29.636,0,0,0,75.4,47
2015-07-11 04:00:00,63.1,63.1,63.1,72,53.9225057168982,3,11,202.5,0,0,29.635,0,0.001,0,75.4,47
2015-07-11 04:05:00,63,63,63,72,53.8264645700276,4,10,225,0,0,29.637,0,0,0,75.2,47
2015-07-11 04:10:00,62.9,62.9,62.9,72,53.7304225862724,5,10,202.5,0,0,29.637,0,0,0,75.2,47
2015-07-11 04:15:00,62.9,62.9,62.9,72,53.7304225862724,2,7,202.5,0,0,29.636,2,0,0,75.2,47
2015-07-11 04:20:00,62.9,62.9,62.9,72,53.7304225862724,1,7,202.5,0,0,29.638,8,0,0,75.2,47
2015-07-11 04:25:00,62.9,62.9,62.9,73,54.1080587627973,2,8,157.5,0,0,29.638,13,0,0,75.2,47
2015-07-11 04:30:00,62.8,62.8,62.8,73,54.0118545481597,2,9,202.5,0,0,29.636,13,0,0,75.2,48
2015-07-11 04:35:00,62.7,62.7,62.7,74,54.2884505007727,2,10,247.5,0,0,29.636,19,0,0,75.2,48
2015-07-11 04:40:00,62.6,62.6,62.6,74,54.1920851472559,4,11,315,0,0,29.635,25,0,0,75.2,48
2015-07-11 04:45:00,62.4,62.4,62.4,75,54.3672817752169,2,9,202.5,0,0,29.634,28,0,0,75,48
2015-07-11 04:50:00,62.3,62.3,62.3,75,54.2707564273993,3,9,202.5,0,0,29.638,38,0,0,75,49
2015-07-11 04:55:00,62.3,62.3,62.3,76,54.6342471332773,3,14,180,0,0,29.638,52,0,0,75,49
2015-07-11 05:00:00,62.3,62.3,62.3,76,54.6342471332773,5,13,270,0,0,29.637,56,0.001,0,74.9,49
2015-07-11 05:05:00,62.3,62.3,62.3,77,54.9935622423383,6,13,225,0,0,29.642,60,0,0,74.9,49
2015-07-11 05:10:00,62.3,62.3,62.3,77,54.9935622423383,4,9,247.5,0,0,29.638,56,0,0,74.7,50
2015-07-11 05:15:00,62.3,62.3,62.3,77,54.9935622423383,2,12,292.5,0,0,29.638,42,0,0,74.5,50
2015-07-11 05:20:00,62.3,62.3,62.3,77,54.9935622423383,5,11,292.5,0,0,29.64,31,0,0,74.5,50
2015-07-11 05:25:00,62.1,62.1,62.1,76,54.4408823742715,7,15,292.5,0,0,29.644,33,0,0,74.5,49
2015-07-11 05:30:00,61.8,61.8,61.8,75,53.78811861159,5,12,225,0,0,29.643,54,0,0,74.3,49
2015-07-11 05:35:00,61.6,61.6,61.6,75,53.5950583159714,6,13,315,0,0,29.645,96,0,0,74.3,49
2015-07-11 05:40:00,61.5,61.5,61.5,75,53.4985270604222,5,12,225,0,0,29.646,126,0,0,74.2,49
2015-07-11 05:45:00,61.5,61.5,61.5,75,53.4985270604222,4,18,225,0,0,29.645,141,0,0,74.2,49
2015-07-11 05:50:00,61.5,61.5,61.5,75,53.4985270604222,5,13,247.5,0,0,29.649,174,0,0,74,49
2015-07-11 05:55:00,61.5,61.5,61.5,75,53.4985270604222,5,14,247.5,0,0,29.648,180,0,0,74,49
2015-07-11 06:00:00,61.5,61.5,61.5,75,53.4985270604222,6,14,270,0,0,29.653,194,0.003,0.2,74,49
2015-07-11 06:05:00,61.6,61.6,61.6,76,53.957458118792,5,13,270,0,0,29.656,164,0,0,74,49
2015-07-11 06:10:00,61.7,61.7,61.7,75,53.6915888330245,5,10,315,0,0,29.659,110,0,0,73.8,49
2015-07-11 06:15:00,61.8,61.8,61.8,75,53.78811861159,4,10,247.5,0,0,29.664,218,0,0,73.8,49
2015-07-11 06:20:00,61.9,61.9,61.9,75,53.8846476516762,4,8,247.5,0,0,29.663,132,0,0,74,49
2015-07-11 06:25:00,61.8,61.8,61.8,75,53.78811861159,5,9,315,0,0,29.664,210,0,0.5,74.2,49
2015-07-11 06:30:00,62,62,62,75,53.9811759532918,5,12,292.5,0,0,29.663,276,0,0.8,74.3,49
2015-07-11 06:35:00,62.3,62.3,62.3,73,53.5308214179533,3,8,225,0,0,29.666,240,0,0.6,74.3,48
2015-07-11 06:40:00,62.6,62.6,62.6,73,53.8194437075111,2,10,292.5,0,0,29.666,174,0,0.1,74.3,48
2015-07-11 06:45:00,62.6,62.6,62.6,73,53.8194437075111,3,8,292.5,0,0,29.669,116,0,0,74.3,48
2015-07-11 06:50:00,62.5,62.5,62.5,74,54.095719022768,1,6,292.5,0,0,29.67,126,0,0.5,74.5,48
2015-07-11 06:55:00,62.3,62.3,62.3,74,53.9029844608422,3,8,292.5,0,0,29.671,181,0,0.9,74.7,48
2015-07-11 07:00:00,62.7,62.7,62.7,74,54.2884505007727,2,8,270,0,0,29.67,183,0.005,0.8,74.7,48
2015-07-11 07:05:00,62.9,62.9,62.9,74,54.4811788949303,4,9,270,0,0,29.667,193,0,0.7,74.9,48
2015-07-11 07:10:00,62.8,62.8,62.8,74,54.3848150833278,3,8,270,0,0,29.672,257,0,0.9,74.9,48
2015-07-11 07:15:00,63.4,63.4,63.4,74,54.9629863889789,2,8,225,0,0,29.675,138,0,0.4,75,48
2015-07-11 07:20:00,63.5,63.5,63.5,73,54.6852671716431,3,11,225,0,0,29.676,109,0,0,75,48
2015-07-11 07:25:00,63.2,63.2,63.2,73,54.396666584084,3,8,292.5,0,0,29.674,122,0,0.2,74.7,48
2015-07-11 07:30:00,63.2,63.2,63.2,73,54.396666584084,3,9,202.5,0,0,29.672,120,0,0.1,74.5,49
2015-07-11 07:35:00,63.2,63.2,63.2,73,54.396666584084,2,7,225,0,0,29.677,90,0,0,74.5,49
2015-07-11 07:40:00,63,63,63,74,54.5775419355895,5,16,225,0,0,29.683,122,0,0.3,74.3,50
2015-07-11 07:45:00,62.7,62.7,62.7,75,54.6568533881337,7,14,202.5,0,0,29.686,119,0,0.4,74.2,50
2015-07-11 07:50:00,62.5,62.5,62.5,76,54.8276090676984,5,12,225,0,0,29.685,104,0,0,74.2,50
2015-07-11 07:55:00,62.3,62.3,62.3,76,54.6342471332773,7,14,225,0,0,29.683,96,0,0,74,51
2015-07-11 08:00:00,62,62,62,78,55.0578347187846,4,11,225,0,0,29.685,141,0.004,0.4,74,51
2015-07-11 08:05:00,62.1,62.1,62.1,78,55.1548249466614,2,10,180,0,0,29.68,200,0,0.9,74,51
2015-07-11 08:10:00,62.2,62.2,62.2,78,55.2518145321691,2,7,180,0,0,29.681,148,0,0.6,74,51
2015-07-11 08:15:00,62.3,62.3,62.3,78,55.348803475314,3,8,225,0,0,29.679,157,0,0.7,74,51
2015-07-11 08:20:00,62.7,62.7,62.7,77,55.3809006968356,1,7,225,0,0,29.685,266,0,1.3,74.2,51
2015-07-11 08:25:00,63.3,63.3,63.3,77,55.9618881559295,2,8,225,0,0,29.69,265,0,1.3,74.3,51
2015-07-11 08:30:00,63.4,63.4,63.4,76,55.6977028200155,2,7,270,0,0,29.682,125,0,0.2,74.7,51
2015-07-11 08:35:00,63.4,63.4,63.4,76,55.6977028200155,2,8,247.5,0,0,29.69,115,0,0.1,74.7,51
2015-07-11 08:40:00,63.3,63.3,63.3,75,55.235976677318,3,10,247.5,0,0,29.689,147,0,0.4,74.7,51
2015-07-11 08:45:00,63.2,63.2,63.2,76,55.5043535954603,3,8,225,0,0,29.696,101,0,0,74.7,51
2015-07-11 08:50:00,63.2,63.2,63.2,76,55.5043535954603,4,12,225,0,0,29.698,55,0,0,74.7,50
2015-07-11 08:55:00,62.6,62.6,62.6,77,55.2840670943685,5,12,202.5,0,0,29.696,77,0,0,74.5,51
2015-07-11 09:00:00,62.2,62.2,62.2,78,55.2518145321691,7,15,225,0,0,29.696,203,0.004,0.9,74.3,51
2015-07-11 09:05:00,62.6,62.6,62.6,78,55.6397664506364,5,12,225,0,0,29.701,283,0,1.5,74.3,51
2015-07-11 09:10:00,62.7,62.7,62.7,77,55.3809006968356,7,13,202.5,0,0,29.702,226,0,1.1,74.5,51
2015-07-11 09:15:00,62.8,62.8,62.8,77,55.4777336252095,6,13,202.5,0,0,29.7,263,0,1.3,74.7,51
2015-07-11 09:20:00,63.1,63.1,63.1,77,55.7682283658434,4,10,180,0,0,29.701,150,0,0.5,74.9,51
2015-07-11 09:25:00,63.2,63.2,63.2,77,55.8650585979154,4,10,202.5,0,0,29.704,108,0,0.1,75,51
2015-07-11 09:30:00,63.3,63.3,63.3,77,55.9618881559295,3,9,202.5,0,0,29.702,76,0,0,75,51
2015-07-11 09:35:00,63.4,63.4,63.4,76,55.6977028200155,6,14,225,0,0,29.706,204,0,1.1,75.2,51
2015-07-11 09:40:00,63.6,63.6,63.6,74,55.1557039902546,6,13,225,0,0,29.71,253,0,1.5,75.2,50
2015-07-11 09:45:00,64,64,64,73,55.1662520766968,4,8,225,0,0,29.708,368,0,2.8,75.2,49
2015-07-11 09:50:00,65,65,65,71,55.3614215223832,3,9,270,0,0,29.705,526,0,3.7,75.2,49
2015-07-11 09:55:00,65.7,65.7,65.7,70,55.6407586934793,5,11,202.5,0,0,29.704,625,0,4.3,75.4,49
2015-07-11 10:00:00,66.1,66.1,66.1,67,54.8162561297843,6,11,225,0,0,29.704,708,0.008,4.9,75.6,48
2015-07-11 10:05:00,67.3,67.3,67.3,65,55.1225807009063,4,10,202.5,0,0,29.706,939,0,4.3,75.7,48
2015-07-11 10:10:00,68,68,68,63,54.9251180405834,4,11,337.5,0,0,29.708,725,0,4.6,75.7,47
2015-07-11 10:15:00,67.2,67.2,67.2,61,53.287051584317,5,11,270,0,0,29.707,289,0,3.4,75.9,46
2015-07-11 10:20:00,66.8,66.8,66.8,61,52.9107172567941,4,10,225,0,0,29.707,361,0,3.8,75.9,45
2015-07-11 10:25:00,67.1,67.1,67.1,60,52.7423403568283,5,12,247.5,0,0,29.706,376,0,4,75.9,44
2015-07-11 10:30:00,67.2,67.2,67.2,58,51.9144321616062,5,11,225,0,0,29.708,246,0,4.2,75.7,43
2015-07-11 10:35:00,67.8,67.8,67.8,57,52.0028462862471,6,13,202.5,0,0,29.703,828,0,5.9,75.7,43
2015-07-11 10:40:00,68.3,68.3,68.3,55,51.4998379832666,5,13,202.5,0,0,29.708,870,0,5.7,75.7,42
2015-07-11 10:45:00,68.8,68.8,68.8,56,52.4538498446619,5,12,292.5,0,0,29.708,928,0,6.3,75.9,42
2015-07-11 10:50:00,68.5,68.5,68.5,56,52.1745794786384,6,15,247.5,0,0,29.71,526,0,4.8,75.9,42
2015-07-11 10:55:00,68.8,68.8,68.8,57,52.9357974233082,3,11,225,0,0,29.713,604,0,4.9,76.1,43
2015-07-11 11:00:00,68.9,68.9,68.9,57,53.0290849965852,5,14,225,0,0,29.713,711,0.017,5.7,76.3,43
2015-07-11 11:05:00,69,69,69,56,52.6400230410666,6,16,315,0,0,29.714,933,0,6,76.3,42
2015-07-11 11:10:00,68.7,68.7,68.7,56,52.3607611322083,5,19,270,0,0,29.714,586,0,4.6,76.4,42
2015-07-11 11:15:00,67.9,67.9,67.9,58,52.5689483879917,7,13,270,0,0,29.714,275,0,4.5,76.3,42
2015-07-11 11:20:00,67.8,67.8,67.8,58,52.475450069035,5,12,225,0,0,29.712,675,0,5.2,76.3,42
2015-07-11 11:25:00,68.6,68.6,68.6,57,52.7492181640347,6,16,225,0,0,29.713,860,0,6.4,76.3,42
2015-07-11 11:30:00,68.7,68.7,68.7,56,52.3607611322083,6,11,270,0,0,29.714,749,0,5.6,76.3,42
2015-07-11 11:35:00,68.5,68.5,68.5,56,52.1745794786384,4,13,315,0,0,29.711,323,0,3.5,76.4,42
2015-07-11 11:40:00,68.3,68.3,68.3,57,52.4693389928722,4,14,225,0,0,29.711,554,0,4.7,76.4,42
2015-07-11 11:45:00,68.9,68.9,68.9,57,53.0290849965852,4,8,292.5,0,0,29.713,353,0,3.8,76.6,42
2015-07-11 11:50:00,67.6,67.6,67.6,56,51.3366922582995,8,14,270,0,0,29.716,317,0,4.3,76.8,41
2015-07-11 11:55:00,67.8,67.8,67.8,56,51.5228992868233,7,14,225,0,0,29.719,429,0,3.6,76.8,41
2015-07-11 12:00:00,67.8,67.8,67.8,55,51.0353596077447,6,18,247.5,0,0,29.718,959,0.016,6.1,76.8,40
2015-07-11 12:05:00,68.2,68.2,68.2,55,51.4069452057521,6,13,225,0,0,29.72,307,0,3.4,76.6,40
2015-07-11 12:10:00,67.8,67.8,67.8,54,50.5399645667149,4,10,247.5,0,0,29.721,297,0,2.9,76.6,40
2015-07-11 12:15:00,67.5,67.5,67.5,55,50.7566551959432,4,11,270,0,0,29.725,336,0,3.2,76.6,40
2015-07-11 12:20:00,67.9,67.9,67.9,55,51.1282581805068,4,11,247.5,0,0,29.726,355,0,4,76.6,39
2015-07-11 12:25:00,68,68,68,55,51.2211553044061,5,12,270,0,0,29.727,321,0,3.2,76.6,39
2015-07-11 12:30:00,67.5,67.5,67.5,53,49.758977057454,6,12,292.5,0,0,29.728,329,0,3.2,76.8,39
2015-07-11 12:35:00,67.9,67.9,67.9,54,50.6326572713424,5,16,202.5,0,0,29.721,447,0,4.6,76.6,39
2015-07-11 12:40:00,68.3,68.3,68.3,53,50.4988404736624,5,11,270,0,0,29.721,494,0,4.8,76.6,39
2015-07-11 12:45:00,68.3,68.3,68.3,52,49.9858271431455,5,18,270,0,0,29.72,513,0,4.3,76.6,39
2015-07-11 12:50:00,68.9,68.9,68.9,52,50.5393850899722,3,11,202.5,0,0,29.726,391,0,3.3,76.8,39
2015-07-11 12:55:00,68.2,68.2,68.2,53,50.4063628956791,6,12,270,0,0,29.733,286,0,2.5,76.8,39
2015-07-11 13:00:00,67.9,67.9,67.9,53,50.1289209922446,5,13,270,0,0,29.729,397,0.011,3.5,76.6,38
2015-07-11 13:05:00,67.6,67.6,67.6,54,50.3545746922057,7,16,270,0,0,29.731,334,0,3.8,76.8,38
2015-07-11 13:10:00,68.1,68.1,68.1,54,50.8180382155221,5,12,225,0,0,29.727,690,0,5,76.6,39
2015-07-11 13:15:00,68.7,68.7,68.7,52,50.3548720482828,5,11,270,0,0,29.724,434,0,4.2,76.6,38
2015-07-11 13:20:00,68.5,68.5,68.5,53,50.6837910451142,7,18,225,0,0,29.725,462,0,3.7,76.6,38
2015-07-11 13:25:00,68.4,68.4,68.4,53,50.5913165234615,5,13,202.5,0,0,29.727,370,0,2.8,76.6,38
2015-07-11 13:30:00,68.4,68.4,68.4,53,50.5913165234615,4,14,225,0,0,29.729,345,0,2.5,76.6,38
2015-07-11 13:35:00,68,68,68,54,50.7253484875995,7,15,247.5,0,0,29.725,319,0,2.4,76.6,39
2015-07-11 13:40:00,67.7,67.7,67.7,54,50.4472703736813,4,10,270,0,0,29.724,283,0,2,76.6,39
2015-07-11 13:45:00,68.1,68.1,68.1,54,50.8180382155221,4,12,180,0,0,29.725,273,0,1.8,76.8,39
2015-07-11 13:50:00,68.5,68.5,68.5,54,51.1887822445851,3,8,225,0,0,29.725,303,0,2.1,76.8,39
2015-07-11 13:55:00,68.7,68.7,68.7,54,51.3741453300418,4,11,202.5,0,0,29.726,397,0,2.7,77,39
2015-07-11 14:00:00,69,69,69,53,51.1461407325077,5,14,202.5,0,0,29.723,349,0.011,2.6,77,39
2015-07-11 14:05:00,68.8,68.8,68.8,53,50.9612054415728,6,19,202.5,0,0,29.722,325,0,2.2,77,39
2015-07-11 14:10:00,68.3,68.3,68.3,54,51.0034132065075,7,18,247.5,0,0,29.723,295,0,2,76.8,39
2015-07-11 14:15:00,67.9,67.9,67.9,54,50.6326572713424,5,13,225,0,0,29.725,337,0,2.2,77,39
2015-07-11 14:20:00,68.1,68.1,68.1,54,50.8180382155221,5,14,225,0,0,29.725,349,0,2.3,77,39
2015-07-11 14:25:00,68,68,68,54,50.7253484875995,6,15,225,0,0,29.725,320,0,2.1,77.2,38
2015-07-11 14:30:00,67.8,67.8,67.8,54,50.5399645667149,6,12,292.5,0,0,29.726,247,0,1.5,77.2,38
2015-07-11 14:35:00,67.4,67.4,67.4,56,51.1504795901925,5,11,270,0,0,29.727,205,0,1.1,77.2,39
2015-07-11 14:40:00,67.4,67.4,67.4,56,51.1504795901925,4,10,270,0,0,29.727,222,0,1.2,77.2,39
2015-07-11 14:45:00,67.2,67.2,67.2,56,50.9642612822461,4,10,247.5,0,0,29.728,254,0,1.4,76.8,39
2015-07-11 14:50:00,66.9,66.9,66.9,57,51.1630730262655,6,12,247.5,0,0,29.729,246,0,1.4,76.8,39
2015-07-11 14:55:00,67,67,67,57,51.2563866517434,4,9,270,0,0,29.731,216,0,1.2,76.8,39
2015-07-11 15:00:00,66.8,66.8,66.8,56,50.5918077458105,6,14,247.5,0,0,29.728,257,0.008,1.5,76.8,39
2015-07-11 15:05:00,66.5,66.5,66.5,57,50.7898048093438,6,13,247.5,0,0,29.728,287,0,1.7,76.8,39
2015-07-11 15:10:00,66.7,66.7,66.7,57,50.9764416608671,5,12,225,0,0,29.731,253,0,1.5,76.8,39
2015-07-11 15:15:00,66.4,66.4,66.4,57,50.6964843262097,8,19,225,0,0,29.73,194,0,1,76.8,39
2015-07-11 15:20:00,66.2,66.2,66.2,58,50.9792956603416,5,16,202.5,0,0,29.725,222,0,1.2,76.4,39
2015-07-11 15:25:00,66.4,66.4,66.4,57,50.6964843262097,4,12,225,0,0,29.728,281,0,1.5,76.3,40
2015-07-11 15:30:00,66.6,66.6,66.6,57,50.8831239208862,7,13,202.5,0,0,29.726,398,0,2.4,76.3,40
2015-07-11 15:35:00,67.8,67.8,67.8,56,51.5228992868233,5,12,202.5,0,0,29.727,671,0,3.4,76.4,40
2015-07-11 15:40:00,69,69,69,54,51.6521787976897,4,10,270,0,0,29.724,699,0,3.3,76.6,40
2015-07-11 15:45:00,69,69,69,53,51.1461407325077,5,11,270,0,0,29.725,750,0,3.2,76.8,39
2015-07-11 15:50:00,69.2,69.2,69.2,53,51.3310699117661,5,13,202.5,0,0,29.724,614,0,2.9,76.8,39
2015-07-11 15:55:00,69.3,69.3,69.3,54,51.9301988735532,3,10,225,0,0,29.721,331,0,2,76.8,39
2015-07-11 16:00:00,68.7,68.7,68.7,54,51.3741453300418,4,11,202.5,0,0,29.72,315,0.011,1.6,77,40
2015-07-11 16:05:00,67.9,67.9,67.9,55,51.1282581805068,7,19,202.5,0,0,29.721,291,0,1.5,77,39
2015-07-11 16:10:00,67.5,67.5,67.5,56,51.2435866292099,8,19,202.5,0,0,29.72,318,0,1.6,77,39
2015-07-11 16:15:00,67.5,67.5,67.5,57,51.7229342081297,9,18,225,0,0,29.72,503,0,2.1,77,40
2015-07-11 16:20:00,67.8,67.8,67.8,57,52.0028462862471,9,18,225,0,0,29.719,536,0,2.2,77,40
2015-07-11 16:25:00,68.3,68.3,68.3,55,51.4998379832666,4,12,225,0,0,29.72,460,0,1.8,77,40
2015-07-11 16:30:00,68.5,68.5,68.5,53,50.6837910451142,7,15,225,0,0,29.724,366,0,1.5,77.2,39
2015-07-11 16:35:00,68.2,68.2,68.2,54,50.9107264551462,6,11,225,0,0,29.722,222,0,1,77.2,39
2015-07-11 16:40:00,67.7,67.7,67.7,55,50.9424595860861,5,12,225,0,0,29.72,233,0,0.9,77.2,39
2015-07-11 16:45:00,67.6,67.6,67.6,56,51.3366922582995,3,10,247.5,0,0,29.722,173,0,0.6,77.2,39
2015-07-11 16:50:00,67.2,67.2,67.2,56,50.9642612822461,6,12,202.5,0,0,29.721,93,0,0,77,39
2015-07-11 16:55:00,66.8,66.8,66.8,57,51.0697580293168,9,16,225,0,0,29.719,91,0,0,76.8,39
2015-07-11 17:00:00,66.5,66.5,66.5,58,51.2598506105592,7,14,202.5,0,0,29.722,119,0.009,0,76.6,40
2015-07-11 17:05:00,66.5,66.5,66.5,58,51.2598506105592,6,22,225,0,0,29.723,122,0,0,76.6,40
2015-07-11 17:10:00,66.2,66.2,66.2,58,50.9792956603416,6,15,202.5,0,0,29.725,90,0,0,76.6,40
2015-07-11 17:15:00,66,66,66,59,51.2542595496493,7,14,225,0,0,29.722,84,0,0,76.6,40
2015-07-11 17:20:00,65.9,65.9,65.9,59,51.1605423417476,7,15,202.5,0,0,29.722,91,0,0,76.4,40
2015-07-11 17:25:00,65.6,65.6,65.6,60,51.3337943679677,7,14,202.5,0,0,29.722,80,0,0,76.3,41
2015-07-11 17:30:00,65.5,65.5,65.5,60,51.239881236366,9,21,202.5,0,0,29.722,92,0,0,76.1,41
2015-07-11 17:35:00,65.4,65.4,65.4,59,50.6919368663462,8,16,202.5,0,0,29.718,72,0,0,76.1,41
2015-07-11 17:40:00,65.3,65.3,65.3,59,50.5982118838992,8,21,202.5,0,0,29.716,74,0,0,75.9,40
2015-07-11 17:45:00,65.2,65.2,65.2,60,50.9581342913416,7,18,202.5,0,0,29.722,74,0,0,75.7,41
2015-07-11 17:50:00,64.9,64.9,64.9,61,51.1228623894421,8,16,225,0,0,29.726,60,0,0,75.7,41
2015-07-11 17:55:00,64.7,64.7,64.7,62,51.3743689206411,8,22,225,0,0,29.726,49,0,0,75.6,41
2015-07-11 18:00:00,64.4,64.4,64.4,64,51.9514508163796,7,14,225,0,0,29.727,53,0.004,0,75.6,42
2015-07-11 18:05:00,64,64,64,65,51.9932407234184,7,13,225,0,0,29.727,52,0,0,75.7,42
2015-07-11 18:10:00,63.6,63.6,63.6,67,52.4365790349824,7,14,225,0,0,29.729,47,0,0,75.6,43
2015-07-11 18:15:00,63.3,63.3,63.3,68,52.5537646243549,5,13,202.5,0,0,29.729,40,0,0,75.6,44
2015-07-11 18:20:00,63,63,63,69,52.6647487927646,7,19,202.5,0,0,29.726,39,0,0,75.6,44
2015-07-11 18:25:00,62.7,62.7,62.7,70,52.7696910926431,8,18,202.5,0,0,29.726,37,0,0,75.6,44
2015-07-11 18:30:00,62.3,62.3,62.3,69,51.9959039472325,9,24,225,0,0,29.732,38,0,0,75.4,44
2015-07-11 18:35:00,61.9,61.9,61.9,71,52.3893162846296,6,14,202.5,0.00393700787,0,29.727,42,0,0,75,45
2015-07-11 18:40:00,61.5,61.5,61.5,71,52.0057579125526,9,19,225,0,0,29.727,48,0,0,74.9,45
2015-07-11 18:45:00,61.2,61.2,61.2,72,52.0975808084925,7,19,202.5,0,0,29.728,44,0,0,74.7,46
2015-07-11 18:50:00,60.9,60.9,60.9,73,52.1838217388784,8,18,225,0,0,29.725,34,0,0,74.5,45
2015-07-11 18:55:00,60.7,60.7,60.7,73,51.9913803502735,6,16,225,0,0,29.724,30,0,0,74.5,45
2015-07-11 19:00:00,60.6,60.6,60.6,74,52.2646161606976,5,11,202.5,0,0,29.723,27,0.003,0,74.5,46
2015-07-11 19:05:00,60.5,60.5,60.5,74,52.1682346148461,6,14,202.5,0,0,29.723,23,0,0,74.5,46
2015-07-11 19:10:00,60.5,60.5,60.5,74,52.1682346148461,6,12,225,0,0,29.717,27,0,0,74.3,46
2015-07-11 19:15:00,60.6,60.6,60.6,74,52.2646161606976,3,10,225,0,0,29.716,46,0,0,74.3,46
2015-07-11 19:20:00,60.6,60.6,60.6,74,52.2646161606976,3,9,202.5,0,0,29.715,55,0,0,74.3,46
2015-07-11 19:25:00,60.7,60.7,60.7,74,52.360996935393,5,11,202.5,0,0,29.71,56,0,0,74.5,46
2015-07-11 19:30:00,60.8,60.8,60.8,74,52.4573769389416,6,11,225,0,0,29.713,47,0,0,74.7,46
2015-07-11 19:35:00,60.8,60.8,60.8,74,52.4573769389416,5,11,202.5,0,0,29.71,44,0,0,74.9,46
2015-07-11 19:40:00,60.8,60.8,60.8,75,52.822787592975,6,12,225,0,0,29.708,33,0,0,74.9,46
2015-07-11 19:45:00,60.7,60.7,60.7,75,52.7262504291519,6,13,202.5,0,0,29.711,22,0,0,74.7,46
2015-07-11 19:50:00,60.8,60.8,60.8,75,52.822787592975,7,13,225,0,0,29.712,17,0,0,74.7,46
2015-07-11 19:55:00,60.8,60.8,60.8,76,53.1839425872039,6,12,225,0,0,29.711,14,0,0,74.7,46
2015-07-11 20:00:00,60.8,60.8,60.8,75,52.822787592975,6,12,225,0,0,29.707,17,0.002,0,74.7,46
2015-07-11 20:05:00,60.8,60.8,60.8,75,52.822787592975,6,11,202.5,0,0,29.711,13,0,0,74.9,46
2015-07-11 20:10:00,60.8,60.8,60.8,75,52.822787592975,5,10,225,0,0,29.707,11,0,0,74.9,46
2015-07-11 20:15:00,60.7,60.7,60.7,75,52.7262504291519,5,13,225,0,0,29.706,7,0,0,74.9,46
2015-07-11 20:20:00,60.7,60.7,60.7,75,52.7262504291519,5,12,180,0,0,29.704,5,0,0,74.9,46
2015-07-11 20:25:00,60.6,60.6,60.6,74,52.2646161606976,6,13,202.5,0,0,29.705,3,0,0,74.9,46
2015-07-11 20:30:00,60.6,60.6,60.6,74,52.2646161606976,4,12,180,0,0,29.708,0,0,0,74.9,46
2015-07-11 20:35:00,60.5,60.5,60.5,74,52.1682346148461,5,9,202.5,0,0,29.706,0,0,0,75,46
2015-07-11 20:40:00,60.5,60.5,60.5,75,52.53317388578,6,11,202.5,0,0,29.71,0,0,0,75,46
2015-07-11 20:45:00,60.5,60.5,60.5,75,52.53317388578,6,13,202.5,0,0,29.708,0,0,0,74.9,46
2015-07-11 20:50:00,60.5,60.5,60.5,75,52.53317388578,7,11,202.5,0,0,29.709,0,0,0,74.9,46
2015-07-11 20:55:00,60.5,60.5,60.5,75,52.53317388578,6,11,202.5,0,0,29.709,0,0,0,74.9,46
2015-07-11 21:00:00,60.5,60.5,60.5,76,52.8938626097438,8,15,202.5,0,0,29.707,0,0.001,0,74.9,46
2015-07-11 21:05:00,60.4,60.4,60.4,76,52.7971678713632,6,10,180,0,0,29.705,0,0,0,74.9,46
2015-07-11 21:10:00,60.4,60.4,60.4,76,52.7971678713632,8,14,202.5,0,0,29.703,0,0,0,74.9,46
2015-07-11 21:15:00,60.4,60.4,60.4,76,52.7971678713632,8,16,225,0,0,29.703,0,0,0,74.5,47
2015-07-11 21:20:00,60.4,60.4,60.4,77,53.153557280293,7,16,202.5,0,0,29.701,0,0,0,74.3,47
2015-07-11 21:25:00,60.4,60.4,60.4,77,53.153557280293,6,12,202.5,0,0,29.702,0,0,0,74.3,47
2015-07-11 21:30:00,60.4,60.4,60.4,77,53.153557280293,7,12,202.5,0,0,29.702,0,0,0,74.3,47
2015-07-11 21:35:00,60.4,60.4,60.4,77,53.153557280293,7,15,225,0,0,29.7,0,0,0,74.5,47
2015-07-11 21:40:00,60.4,60.4,60.4,77,53.153557280293,7,13,202.5,0,0,29.703,0,0,0,74.5,48
2015-07-11 21:45:00,60.5,60.5,60.5,77,53.2504057145891,6,14,180,0,0,29.701,0,0,0,74.5,47